contact:dominique.lefevre@mio.osupytheas.fr, maurice.libes@osupytheas.fr, didier.mallarino@osupytheas.fr
Project:EMSO http://www.emso-fr.org/EMSO-France
Depth: 2436.0 m
Title:EMSO Ligure Ouest : Data MII capteur MICROCAT
DateTime_Computer,Latitude,Longitude,Temperature,Conductivity,Pressure,DateTime_Instrument
DateTime_Computer,Latitude,Longitude,degC,S m-1,dbar,DateTime_Instrument
2021-05-07T00:02:08Z,42.805,6.029,13.2992,4.59994,2470.553,2021-5-07T02:03:19Z
2021-05-07T00:05:12Z,42.805,6.029,13.2991,4.59994,2470.591,2021-5-07T02:06:22Z
2021-05-07T00:08:15Z,42.805,6.029,13.2989,4.59992,2470.577,2021-5-07T02:09:25Z
2021-05-07T00:11:18Z,42.805,6.029,13.2987,4.59996,2470.567,2021-5-07T02:12:28Z
2021-05-07T00:14:21Z,42.805,6.029,13.2990,4.59993,2470.553,2021-5-07T02:15:31Z
2021-05-07T00:17:24Z,42.805,6.029,13.2987,4.59992,2470.553,2021-5-07T02:18:34Z
2021-05-07T00:20:27Z,42.805,6.029,13.2990,4.59993,2470.577,2021-5-07T02:21:37Z
2021-05-07T00:23:30Z,42.805,6.029,13.2990,4.59993,2470.577,2021-5-07T02:24:41Z
2021-05-07T00:26:33Z,42.805,6.029,13.2987,4.59994,2470.577,2021-5-07T02:27:44Z
2021-05-07T00:29:37Z,42.805,6.029,13.2987,4.59994,2470.53,2021-5-07T02:30:47Z
2021-05-07T00:32:40Z,42.805,6.029,13.2988,4.59994,2470.614,2021-5-07T02:33:50Z
2021-05-07T00:35:43Z,42.805,6.029,13.2991,4.59993,2470.577,2021-5-07T02:36:53Z
2021-05-07T00:38:46Z,42.805,6.029,13.2990,4.59994,2470.6,2021-5-07T02:39:56Z
2021-05-07T00:41:49Z,42.805,6.029,13.2989,4.59994,2470.591,2021-5-07T02:42:59Z
2021-05-07T00:44:52Z,42.805,6.029,13.2990,4.59994,2470.577,2021-5-07T02:46:02Z
2021-05-07T00:47:55Z,42.805,6.029,13.2990,4.59995,2470.577,2021-5-07T02:49:06Z
2021-05-07T00:50:58Z,42.805,6.029,13.2990,4.59993,2470.614,2021-5-07T02:52:09Z
2021-05-07T00:54:01Z,42.805,6.029,13.2987,4.59996,2470.567,2021-5-07T02:55:12Z
2021-05-07T00:57:05Z,42.805,6.029,13.2986,4.59993,2470.614,2021-5-07T02:58:15Z
2021-05-07T01:00:08Z,42.805,6.029,13.2989,4.59995,2470.577,2021-5-07T03:01:18Z
2021-05-07T01:03:11Z,42.805,6.029,13.2991,4.59993,2470.6,2021-5-07T03:04:21Z
2021-05-07T01:06:14Z,42.805,6.029,13.2987,4.59992,2470.591,2021-5-07T03:07:24Z
2021-05-07T01:09:17Z,42.805,6.029,13.2986,4.59992,2470.577,2021-5-07T03:10:27Z
2021-05-07T01:12:20Z,42.805,6.029,13.2988,4.59993,2470.624,2021-5-07T03:13:31Z
2021-05-07T01:15:23Z,42.805,6.029,13.2986,4.59992,2470.591,2021-5-07T03:16:34Z
2021-05-07T01:18:26Z,42.805,6.029,13.2990,4.59992,2470.6,2021-5-07T03:19:37Z
2021-05-07T01:21:30Z,42.805,6.029,13.2990,4.59993,2470.646,2021-5-07T03:22:40Z
2021-05-07T01:24:33Z,42.805,6.029,13.2988,4.59993,2470.624,2021-5-07T03:25:43Z
2021-05-07T01:27:36Z,42.805,6.029,13.2986,4.59994,2470.6,2021-5-07T03:28:46Z
2021-05-07T01:30:39Z,42.805,6.029,13.2984,4.59995,2470.637,2021-5-07T03:31:49Z
2021-05-07T01:33:42Z,42.805,6.029,13.2983,4.59991,2470.591,2021-5-07T03:34:52Z
2021-05-07T01:36:45Z,42.805,6.029,13.2986,4.59993,2470.637,2021-5-07T03:37:55Z
2021-05-07T01:39:48Z,42.805,6.029,13.2988,4.59993,2470.637,2021-5-07T03:40:59Z
2021-05-07T01:42:51Z,42.805,6.029,13.2988,4.59994,2470.637,2021-5-07T03:44:02Z
2021-05-07T01:45:54Z,42.805,6.029,13.2985,4.59993,2470.637,2021-5-07T03:47:05Z
2021-05-07T01:48:58Z,42.805,6.029,13.2991,4.59995,2470.646,2021-5-07T03:50:08Z
2021-05-07T01:52:01Z,42.805,6.029,13.2988,4.59993,2470.6,2021-5-07T03:53:11Z
2021-05-07T01:55:04Z,42.805,6.029,13.2985,4.59994,2470.624,2021-5-07T03:56:14Z
2021-05-07T01:58:07Z,42.805,6.029,13.2990,4.59994,2470.661,2021-5-07T03:59:17Z
2021-05-07T02:01:10Z,42.805,6.029,13.2990,4.59994,2470.624,2021-5-07T04:02:20Z
2021-05-07T02:04:13Z,42.805,6.029,13.2986,4.59993,2470.637,2021-5-07T04:05:24Z
2021-05-07T02:07:16Z,42.805,6.029,13.2993,4.59994,2470.67,2021-5-07T04:08:27Z
2021-05-07T02:10:19Z,42.805,6.029,13.2988,4.59994,2470.646,2021-5-07T04:11:30Z
2021-05-07T02:13:23Z,42.805,6.029,13.2988,4.59995,2470.67,2021-5-07T04:14:33Z
2021-05-07T02:16:26Z,42.805,6.029,13.2989,4.59993,2470.6,2021-5-07T04:17:36Z
2021-05-07T02:19:29Z,42.805,6.029,13.2989,4.59993,2470.67,2021-5-07T04:20:39Z
2021-05-07T02:22:32Z,42.805,6.029,13.2986,4.59993,2470.67,2021-5-07T04:23:42Z
2021-05-07T02:25:35Z,42.805,6.029,13.2990,4.59994,2470.67,2021-5-07T04:26:45Z
2021-05-07T02:28:38Z,42.805,6.029,13.2989,4.59994,2470.661,2021-5-07T04:29:48Z
2021-05-07T02:31:41Z,42.805,6.029,13.2985,4.59994,2470.646,2021-5-07T04:32:52Z
2021-05-07T02:34:44Z,42.805,6.029,13.2986,4.59996,2470.646,2021-5-07T04:35:55Z
2021-05-07T02:37:48Z,42.805,6.029,13.2987,4.59996,2470.646,2021-5-07T04:38:58Z
2021-05-07T02:40:51Z,42.805,6.029,13.2988,4.59993,2470.637,2021-5-07T04:42:01Z
2021-05-07T02:43:54Z,42.805,6.029,13.2992,4.59994,2470.684,2021-5-07T04:45:04Z
2021-05-07T02:46:57Z,42.805,6.029,13.2987,4.59994,2470.646,2021-5-07T04:48:07Z
2021-05-07T02:50:00Z,42.805,6.029,13.2990,4.59995,2470.693,2021-5-07T04:51:10Z
2021-05-07T02:53:03Z,42.805,6.029,13.2984,4.59994,2470.693,2021-5-07T04:54:13Z
2021-05-07T02:56:06Z,42.805,6.029,13.2991,4.59995,2470.67,2021-5-07T04:57:17Z
2021-05-07T02:59:09Z,42.805,6.029,13.2990,4.59993,2470.67,2021-5-07T05:00:20Z
2021-05-07T03:02:12Z,42.805,6.029,13.2987,4.59995,2470.693,2021-5-07T05:03:23Z
2021-05-07T03:05:16Z,42.805,6.029,13.2990,4.59993,2470.67,2021-5-07T05:06:26Z
2021-05-07T03:08:19Z,42.805,6.029,13.2986,4.59994,2470.693,2021-5-07T05:09:29Z
2021-05-07T03:11:22Z,42.805,6.029,13.2987,4.59993,2470.67,2021-5-07T05:12:32Z
2021-05-07T03:14:25Z,42.805,6.029,13.2987,4.59994,2470.73,2021-5-07T05:15:35Z
2021-05-07T03:17:28Z,42.805,6.029,13.2990,4.59993,2470.707,2021-5-07T05:18:38Z
2021-05-07T03:20:31Z,42.805,6.029,13.2989,4.59993,2470.684,2021-5-07T05:21:42Z
2021-05-07T03:23:34Z,42.805,6.029,13.2989,4.59996,2470.693,2021-5-07T05:24:45Z
2021-05-07T03:26:37Z,42.805,6.029,13.2990,4.59994,2470.707,2021-5-07T05:27:48Z
2021-05-07T03:29:41Z,42.805,6.029,13.2990,4.59994,2470.707,2021-5-07T05:30:51Z
2021-05-07T03:32:44Z,42.805,6.029,13.2986,4.59994,2470.717,2021-5-07T05:33:54Z
2021-05-07T03:35:47Z,42.805,6.029,13.2990,4.59994,2470.67,2021-5-07T05:36:57Z
2021-05-07T03:38:50Z,42.805,6.029,13.2991,4.59993,2470.707,2021-5-07T05:40:00Z
2021-05-07T03:41:53Z,42.805,6.029,13.2986,4.59994,2470.707,2021-5-07T05:43:03Z
2021-05-07T03:44:56Z,42.805,6.029,13.2989,4.59994,2470.684,2021-5-07T05:46:06Z
2021-05-07T03:47:59Z,42.805,6.029,13.2989,4.59994,2470.693,2021-5-07T05:49:10Z
2021-05-07T03:51:02Z,42.805,6.029,13.2989,4.59994,2470.707,2021-5-07T05:52:13Z
2021-05-07T03:54:05Z,42.805,6.029,13.2990,4.59996,2470.67,2021-5-07T05:55:16Z
2021-05-07T03:57:09Z,42.805,6.029,13.2987,4.59995,2470.693,2021-5-07T05:58:19Z
2021-05-07T04:00:12Z,42.805,6.029,13.2991,4.59995,2470.67,2021-5-07T06:01:22Z
2021-05-07T04:03:15Z,42.805,6.029,13.2987,4.59994,2470.656,2021-5-07T06:04:25Z
2021-05-07T04:06:18Z,42.805,6.029,13.2993,4.59993,2470.707,2021-5-07T06:07:28Z
2021-05-07T04:09:21Z,42.805,6.029,13.2992,4.59994,2470.717,2021-5-07T06:10:31Z
2021-05-07T04:12:24Z,42.805,6.029,13.2989,4.59996,2470.693,2021-5-07T06:13:35Z
2021-05-07T04:15:27Z,42.805,6.029,13.2990,4.59994,2470.73,2021-5-07T06:16:38Z
2021-05-07T04:18:30Z,42.805,6.029,13.2986,4.59994,2470.754,2021-5-07T06:19:41Z
2021-05-07T04:21:34Z,42.805,6.029,13.2987,4.59995,2470.693,2021-5-07T06:22:44Z
2021-05-07T04:24:37Z,42.805,6.029,13.2991,4.59996,2470.707,2021-5-07T06:25:47Z
2021-05-07T04:27:40Z,42.805,6.029,13.2988,4.59995,2470.684,2021-5-07T06:28:50Z
2021-05-07T04:30:43Z,42.805,6.029,13.2990,4.59994,2470.693,2021-5-07T06:31:53Z
2021-05-07T04:33:46Z,42.805,6.029,13.2988,4.59994,2470.717,2021-5-07T06:34:56Z
2021-05-07T04:36:49Z,42.805,6.029,13.2989,4.59993,2470.754,2021-5-07T06:38:00Z
2021-05-07T04:39:52Z,42.805,6.029,13.2985,4.59996,2470.73,2021-5-07T06:41:03Z
2021-05-07T04:42:55Z,42.805,6.029,13.2987,4.59996,2470.693,2021-5-07T06:44:06Z
2021-05-07T04:45:58Z,42.805,6.029,13.2985,4.59994,2470.73,2021-5-07T06:47:09Z
2021-05-07T04:49:02Z,42.805,6.029,13.2989,4.59993,2470.693,2021-5-07T06:50:12Z
2021-05-07T04:52:05Z,42.805,6.029,13.2989,4.59994,2470.74,2021-5-07T06:53:15Z
2021-05-07T04:55:08Z,42.805,6.029,13.2988,4.59995,2470.693,2021-5-07T06:56:18Z
2021-05-07T04:58:11Z,42.805,6.029,13.2985,4.59994,2470.693,2021-5-07T06:59:21Z
2021-05-07T05:01:14Z,42.805,6.029,13.2991,4.59994,2470.717,2021-5-07T07:02:24Z
2021-05-07T05:04:17Z,42.805,6.029,13.2990,4.59994,2470.73,2021-5-07T07:05:28Z
2021-05-07T05:07:20Z,42.805,6.029,13.2988,4.59996,2470.693,2021-5-07T07:08:31Z
2021-05-07T05:10:23Z,42.805,6.029,13.2990,4.59994,2470.717,2021-5-07T07:11:34Z
2021-05-07T05:13:27Z,42.805,6.029,13.2986,4.59994,2470.707,2021-5-07T07:14:37Z
2021-05-07T05:16:30Z,42.805,6.029,13.2990,4.59993,2470.754,2021-5-07T07:17:40Z
2021-05-07T05:19:33Z,42.805,6.029,13.2992,4.59994,2470.717,2021-5-07T07:20:43Z
2021-05-07T05:22:36Z,42.805,6.029,13.2991,4.59994,2470.717,2021-5-07T07:23:46Z
2021-05-07T05:25:39Z,42.805,6.029,13.2986,4.59998,2470.717,2021-5-07T07:26:49Z
2021-05-07T05:28:42Z,42.805,6.029,13.2992,4.59996,2470.73,2021-5-07T07:29:52Z
2021-05-07T05:31:45Z,42.805,6.029,13.2993,4.59994,2470.73,2021-5-07T07:32:56Z
2021-05-07T05:34:48Z,42.805,6.029,13.2988,4.59994,2470.717,2021-5-07T07:35:59Z
2021-05-07T05:37:51Z,42.805,6.029,13.2988,4.59996,2470.717,2021-5-07T07:39:02Z
2021-05-07T05:40:55Z,42.805,6.029,13.2985,4.59993,2470.717,2021-5-07T07:42:05Z
2021-05-07T05:43:58Z,42.805,6.029,13.2986,4.59993,2470.73,2021-5-07T07:45:08Z
2021-05-07T05:47:01Z,42.805,6.029,13.2991,4.59994,2470.717,2021-5-07T07:48:11Z
2021-05-07T05:50:04Z,42.805,6.029,13.2989,4.59994,2470.693,2021-5-07T07:51:14Z
2021-05-07T05:53:07Z,42.805,6.029,13.2992,4.59993,2470.717,2021-5-07T07:54:17Z
2021-05-07T05:56:10Z,42.805,6.029,13.2988,4.59995,2470.707,2021-5-07T07:57:21Z
2021-05-07T05:59:13Z,42.805,6.029,13.2992,4.59998,2470.73,2021-5-07T08:00:24Z
2021-05-07T06:02:16Z,42.805,6.029,13.2990,4.59994,2470.717,2021-5-07T08:03:27Z
2021-05-07T06:05:19Z,42.805,6.029,13.2990,4.59994,2470.717,2021-5-07T08:06:30Z
2021-05-07T06:08:23Z,42.805,6.029,13.2986,4.59993,2470.693,2021-5-07T08:09:33Z
2021-05-07T06:11:26Z,42.805,6.029,13.2987,4.59993,2470.754,2021-5-07T08:12:36Z
2021-05-07T06:14:29Z,42.805,6.029,13.2987,4.59996,2470.754,2021-5-07T08:15:39Z
2021-05-07T06:17:32Z,42.805,6.029,13.2991,4.59994,2470.707,2021-5-07T08:18:42Z
2021-05-07T06:20:35Z,42.805,6.029,13.2987,4.59994,2470.693,2021-5-07T08:21:45Z
2021-05-07T06:23:38Z,42.805,6.029,13.2988,4.59994,2470.693,2021-5-07T08:24:49Z
2021-05-07T06:26:41Z,42.805,6.029,13.2990,4.59993,2470.707,2021-5-07T08:27:52Z
2021-05-07T06:29:44Z,42.805,6.029,13.2991,4.59994,2470.73,2021-5-07T08:30:55Z
2021-05-07T06:32:48Z,42.805,6.029,13.2988,4.59998,2470.74,2021-5-07T08:33:58Z
2021-05-07T06:35:51Z,42.805,6.029,13.2992,4.59993,2470.717,2021-5-07T08:37:01Z
2021-05-07T06:38:54Z,42.805,6.029,13.2985,4.59994,2470.707,2021-5-07T08:40:04Z
2021-05-07T06:41:57Z,42.805,6.029,13.2988,4.59994,2470.717,2021-5-07T08:43:07Z
2021-05-07T06:45:00Z,42.805,6.029,13.2987,4.59994,2470.693,2021-5-07T08:46:10Z
2021-05-07T06:48:03Z,42.805,6.029,13.2990,4.59994,2470.707,2021-5-07T08:49:14Z
2021-05-07T06:51:06Z,42.805,6.029,13.2990,4.59994,2470.693,2021-5-07T08:52:17Z
2021-05-07T06:54:09Z,42.805,6.029,13.2987,4.59994,2470.73,2021-5-07T08:55:20Z
2021-05-07T06:57:13Z,42.805,6.029,13.2992,4.59993,2470.67,2021-5-07T08:58:23Z
2021-05-07T07:00:16Z,42.805,6.029,13.2987,4.59995,2470.707,2021-5-07T09:01:26Z
2021-05-07T07:03:19Z,42.805,6.029,13.2990,4.59996,2470.684,2021-5-07T09:04:29Z
2021-05-07T07:06:22Z,42.805,6.029,13.2987,4.59994,2470.693,2021-5-07T09:07:32Z
2021-05-07T07:09:25Z,42.805,6.029,13.2989,4.59994,2470.693,2021-5-07T09:10:35Z
2021-05-07T07:12:28Z,42.805,6.029,13.2991,4.59996,2470.661,2021-5-07T09:13:38Z
2021-05-07T07:15:31Z,42.805,6.029,13.2990,4.59994,2470.693,2021-5-07T09:16:42Z
2021-05-07T07:18:34Z,42.805,6.029,13.2991,4.59998,2470.693,2021-5-07T09:19:45Z
2021-05-07T07:21:37Z,42.805,6.029,13.2989,4.59996,2470.693,2021-5-07T09:22:48Z
2021-05-07T07:24:41Z,42.805,6.029,13.2987,4.59995,2470.684,2021-5-07T09:25:51Z
2021-05-07T07:27:44Z,42.805,6.029,13.2988,4.59994,2470.67,2021-5-07T09:28:54Z
2021-05-07T07:30:47Z,42.805,6.029,13.2986,4.59994,2470.67,2021-5-07T09:31:57Z
2021-05-07T07:33:50Z,42.805,6.029,13.2989,4.60000,2470.693,2021-5-07T09:35:00Z
2021-05-07T07:36:53Z,42.805,6.029,13.2990,4.59993,2470.684,2021-5-07T09:38:03Z
2021-05-07T07:39:56Z,42.805,6.029,13.2990,4.59994,2470.656,2021-5-07T09:41:07Z
2021-05-07T07:42:59Z,42.805,6.029,13.2986,4.59993,2470.646,2021-5-07T09:44:10Z
2021-05-07T07:46:02Z,42.805,6.029,13.2986,4.59993,2470.67,2021-5-07T09:47:13Z
2021-05-07T07:49:06Z,42.805,6.029,13.2989,4.59993,2470.67,2021-5-07T09:50:16Z
2021-05-07T07:52:09Z,42.805,6.029,13.2991,4.59996,2470.633,2021-5-07T09:53:19Z
2021-05-07T07:55:12Z,42.805,6.029,13.2990,4.59993,2470.646,2021-5-07T09:56:22Z
2021-05-07T07:58:15Z,42.805,6.029,13.2986,4.59994,2470.67,2021-5-07T09:59:25Z
2021-05-07T08:01:18Z,42.805,6.029,13.2988,4.59993,2470.707,2021-5-07T10:02:28Z
2021-05-07T08:04:21Z,42.805,6.029,13.2987,4.59993,2470.6,2021-5-07T10:05:32Z
2021-05-07T08:07:24Z,42.805,6.029,13.2986,4.59993,2470.646,2021-5-07T10:08:35Z
2021-05-07T08:10:27Z,42.805,6.029,13.2989,4.59993,2470.661,2021-5-07T10:11:38Z
2021-05-07T08:13:31Z,42.805,6.029,13.2987,4.59995,2470.646,2021-5-07T10:14:41Z
2021-05-07T08:16:34Z,42.805,6.029,13.2989,4.59994,2470.646,2021-5-07T10:17:44Z
2021-05-07T08:19:37Z,42.805,6.029,13.2987,4.59996,2470.624,2021-5-07T10:20:47Z
2021-05-07T08:22:40Z,42.805,6.029,13.2989,4.59993,2470.624,2021-5-07T10:23:50Z
2021-05-07T08:25:43Z,42.805,6.029,13.2984,4.59994,2470.646,2021-5-07T10:26:53Z
2021-05-07T08:28:46Z,42.805,6.029,13.2986,4.59996,2470.646,2021-5-07T10:29:56Z
2021-05-07T08:31:49Z,42.805,6.029,13.2987,4.59993,2470.661,2021-5-07T10:33:00Z
2021-05-07T08:34:52Z,42.805,6.029,13.2985,4.59994,2470.624,2021-5-07T10:36:03Z
2021-05-07T08:37:56Z,42.805,6.029,13.2991,4.59994,2470.624,2021-5-07T10:39:06Z
2021-05-07T08:40:59Z,42.805,6.029,13.2986,4.59993,2470.637,2021-5-07T10:42:09Z
2021-05-07T08:44:02Z,42.805,6.029,13.2989,4.59994,2470.563,2021-5-07T10:45:12Z
2021-05-07T08:47:05Z,42.805,6.029,13.2988,4.59994,2470.646,2021-5-07T10:48:15Z
2021-05-07T08:50:08Z,42.805,6.029,13.2987,4.59994,2470.624,2021-5-07T10:51:18Z
2021-05-07T08:53:11Z,42.805,6.029,13.2988,4.59994,2470.624,2021-5-07T10:54:21Z
2021-05-07T08:56:14Z,42.805,6.029,13.2990,4.59994,2470.624,2021-5-07T10:57:25Z
2021-05-07T08:59:17Z,42.805,6.029,13.2988,4.59995,2470.61,2021-5-07T11:00:28Z
2021-05-07T09:02:20Z,42.805,6.029,13.2990,4.59995,2470.624,2021-5-07T11:03:31Z
2021-05-07T09:05:24Z,42.805,6.029,13.2990,4.59993,2470.637,2021-5-07T11:06:34Z
2021-05-07T09:08:27Z,42.805,6.029,13.2986,4.59999,2470.624,2021-5-07T11:09:37Z
2021-05-07T09:11:30Z,42.805,6.029,13.2991,4.59992,2470.624,2021-5-07T11:12:40Z
2021-05-07T09:14:33Z,42.805,6.029,13.2990,4.59994,2470.6,2021-5-07T11:15:43Z
2021-05-07T09:17:36Z,42.805,6.029,13.2990,4.59994,2470.624,2021-5-07T11:18:46Z
2021-05-07T09:20:39Z,42.805,6.029,13.2991,4.59994,2470.637,2021-5-07T11:21:50Z
2021-05-07T09:23:42Z,42.805,6.029,13.2986,4.59995,2470.637,2021-5-07T11:24:53Z
2021-05-07T09:26:45Z,42.805,6.029,13.2990,4.60002,2470.6,2021-5-07T11:27:56Z
2021-05-07T09:29:49Z,42.805,6.029,13.2988,4.59998,2470.637,2021-5-07T11:30:59Z
2021-05-07T09:32:52Z,42.805,6.029,13.2990,4.59995,2470.624,2021-5-07T11:34:02Z
2021-05-07T09:35:55Z,42.805,6.029,13.2986,4.59994,2470.637,2021-5-07T11:37:05Z
2021-05-07T09:38:58Z,42.805,6.029,13.2993,4.59994,2470.567,2021-5-07T11:40:08Z
2021-05-07T09:42:01Z,42.805,6.029,13.2988,4.59992,2470.577,2021-5-07T11:43:11Z
2021-05-07T09:45:04Z,42.805,6.029,13.2986,4.59994,2470.577,2021-5-07T11:46:15Z
2021-05-07T09:48:07Z,42.805,6.029,13.2984,4.59994,2470.6,2021-5-07T11:49:18Z
2021-05-07T09:51:10Z,42.805,6.029,13.2986,4.59994,2470.614,2021-5-07T11:52:21Z
2021-05-07T09:54:14Z,42.805,6.029,13.2987,4.59994,2470.591,2021-5-07T11:55:24Z
2021-05-07T09:57:17Z,42.805,6.029,13.2989,4.59995,2470.577,2021-5-07T11:58:27Z
2021-05-07T10:00:20Z,42.805,6.029,13.2989,4.59996,2470.614,2021-5-07T12:01:30Z
2021-05-07T10:03:23Z,42.805,6.029,13.2986,4.59995,2470.591,2021-5-07T12:04:33Z
2021-05-07T10:06:26Z,42.805,6.029,13.2986,4.59995,2470.614,2021-5-07T12:07:36Z
2021-05-07T10:09:29Z,42.805,6.029,13.2989,4.59995,2470.577,2021-5-07T12:10:40Z
2021-05-07T10:12:32Z,42.805,6.029,13.2985,4.59996,2470.577,2021-5-07T12:13:43Z
2021-05-07T10:15:35Z,42.805,6.029,13.2989,4.59994,2470.553,2021-5-07T12:16:46Z
2021-05-07T10:18:39Z,42.805,6.029,13.2991,4.59995,2470.577,2021-5-07T12:19:49Z
2021-05-07T10:21:42Z,42.805,6.029,13.2990,4.59995,2470.577,2021-5-07T12:22:52Z
2021-05-07T10:24:45Z,42.805,6.029,13.2986,4.59996,2470.591,2021-5-07T12:25:55Z
2021-05-07T10:27:48Z,42.805,6.029,13.2990,4.60002,2470.553,2021-5-07T12:28:58Z
2021-05-07T10:30:51Z,42.805,6.029,13.2988,4.59994,2470.553,2021-5-07T12:32:01Z
2021-05-07T10:33:54Z,42.805,6.029,13.2986,4.59995,2470.553,2021-5-07T12:35:05Z
2021-05-07T10:36:57Z,42.805,6.029,13.2990,4.59995,2470.577,2021-5-07T12:38:08Z
2021-05-07T10:40:00Z,42.805,6.029,13.2990,4.60003,2470.539,2021-5-07T12:41:11Z
2021-05-07T10:43:04Z,42.805,6.029,13.2987,4.60001,2470.553,2021-5-07T12:44:14Z
2021-05-07T10:46:07Z,42.805,6.029,13.2990,4.59998,2470.577,2021-5-07T12:47:17Z
2021-05-07T10:49:10Z,42.805,6.029,13.2989,4.59996,2470.53,2021-5-07T12:50:20Z
2021-05-07T10:52:13Z,42.805,6.029,13.2991,4.59998,2470.567,2021-5-07T12:53:23Z
2021-05-07T10:55:16Z,42.805,6.029,13.2991,4.59995,2470.553,2021-5-07T12:56:26Z
2021-05-07T10:58:19Z,42.805,6.029,13.2991,4.59994,2470.544,2021-5-07T12:59:30Z
2021-05-07T11:01:22Z,42.805,6.029,13.2993,4.59996,2470.567,2021-5-07T13:02:33Z
2021-05-07T11:04:25Z,42.805,6.029,13.2988,4.59997,2470.614,2021-5-07T13:05:36Z
2021-05-07T11:07:29Z,42.805,6.029,13.2987,4.60000,2470.563,2021-5-07T13:08:39Z
2021-05-07T11:10:32Z,42.805,6.029,13.2993,4.60004,2470.591,2021-5-07T13:11:42Z
2021-05-07T11:13:35Z,42.805,6.029,13.2991,4.59998,2470.53,2021-5-07T13:14:45Z
2021-05-07T11:16:38Z,42.805,6.029,13.2990,4.59998,2470.553,2021-5-07T13:17:48Z
2021-05-07T11:19:41Z,42.805,6.029,13.2986,4.59999,2470.553,2021-5-07T13:20:51Z
2021-05-07T11:22:44Z,42.805,6.029,13.2990,4.59998,2470.553,2021-5-07T13:23:55Z
2021-05-07T11:25:47Z,42.805,6.029,13.2993,4.59995,2470.567,2021-5-07T13:26:58Z
2021-05-07T11:28:50Z,42.805,6.029,13.2988,4.59996,2470.553,2021-5-07T13:30:01Z
2021-05-07T11:31:54Z,42.805,6.029,13.2989,4.59998,2470.553,2021-5-07T13:33:04Z
2021-05-07T11:34:57Z,42.805,6.029,13.2990,4.59999,2470.567,2021-5-07T13:36:07Z
2021-05-07T11:38:00Z,42.805,6.029,13.2990,4.59996,2470.553,2021-5-07T13:39:10Z
2021-05-07T11:41:03Z,42.805,6.029,13.2992,4.59996,2470.553,2021-5-07T13:42:13Z
2021-05-07T11:44:06Z,42.805,6.029,13.2991,4.59996,2470.53,2021-5-07T13:45:16Z
2021-05-07T11:47:09Z,42.805,6.029,13.2990,4.59997,2470.53,2021-5-07T13:48:20Z
2021-05-07T11:50:12Z,42.805,6.029,13.2992,4.59999,2470.591,2021-5-07T13:51:23Z
2021-05-07T11:53:15Z,42.805,6.029,13.2986,4.59996,2470.497,2021-5-07T13:54:26Z
2021-05-07T11:56:19Z,42.805,6.029,13.2988,4.59997,2470.577,2021-5-07T13:57:29Z
2021-05-07T11:59:22Z,42.805,6.029,13.2987,4.60000,2470.553,2021-5-07T14:00:32Z
2021-05-07T12:02:25Z,42.805,6.029,13.2988,4.59997,2470.567,2021-5-07T14:03:35Z
2021-05-07T12:05:28Z,42.805,6.029,13.2986,4.59999,2470.53,2021-5-07T14:06:38Z
2021-05-07T12:08:31Z,42.805,6.029,13.2987,4.59999,2470.544,2021-5-07T14:09:41Z
2021-05-07T12:11:34Z,42.805,6.029,13.2990,4.59999,2470.544,2021-5-07T14:12:45Z
2021-05-07T12:14:37Z,42.805,6.029,13.2987,4.60000,2470.614,2021-5-07T14:15:48Z
2021-05-07T12:17:40Z,42.805,6.029,13.2988,4.59998,2470.553,2021-5-07T14:18:51Z
2021-05-07T12:20:44Z,42.805,6.029,13.2987,4.59997,2470.591,2021-5-07T14:21:54Z
2021-05-07T12:23:47Z,42.805,6.029,13.2990,4.59997,2470.567,2021-5-07T14:24:57Z
2021-05-07T12:26:50Z,42.805,6.029,13.2989,4.59996,2470.553,2021-5-07T14:28:00Z
2021-05-07T12:29:53Z,42.805,6.029,13.2989,4.59998,2470.553,2021-5-07T14:31:03Z
2021-05-07T12:32:56Z,42.805,6.029,13.2990,4.60002,2470.6,2021-5-07T14:34:06Z
2021-05-07T12:35:59Z,42.805,6.029,13.2990,4.60000,2470.553,2021-5-07T14:37:09Z
2021-05-07T12:39:02Z,42.805,6.029,13.2990,4.60000,2470.577,2021-5-07T14:40:13Z
2021-05-07T12:42:05Z,42.805,6.029,13.2988,4.59998,2470.577,2021-5-07T14:43:16Z
2021-05-07T12:45:08Z,42.805,6.029,13.2988,4.59997,2470.567,2021-5-07T14:46:19Z
2021-05-07T12:48:12Z,42.805,6.029,13.2990,4.59999,2470.591,2021-5-07T14:49:22Z
2021-05-07T12:51:15Z,42.805,6.029,13.2987,4.59998,2470.553,2021-5-07T14:52:25Z
2021-05-07T12:54:18Z,42.805,6.029,13.2986,4.59997,2470.577,2021-5-07T14:55:28Z
2021-05-07T12:57:21Z,42.805,6.029,13.2991,4.60000,2470.577,2021-5-07T14:58:31Z
2021-05-07T13:00:24Z,42.805,6.029,13.2989,4.59999,2470.577,2021-5-07T15:01:34Z
2021-05-07T13:03:27Z,42.805,6.029,13.2993,4.59998,2470.577,2021-5-07T15:04:38Z
2021-05-07T13:06:30Z,42.805,6.029,13.2990,4.59998,2470.53,2021-5-07T15:07:41Z
2021-05-07T13:09:33Z,42.805,6.029,13.2991,4.59999,2470.577,2021-5-07T15:10:44Z
2021-05-07T13:12:37Z,42.805,6.029,13.2990,4.59996,2470.577,2021-5-07T15:13:47Z
2021-05-07T13:15:40Z,42.805,6.029,13.2992,4.59999,2470.6,2021-5-07T15:16:50Z
2021-05-07T13:18:43Z,42.805,6.029,13.2991,4.59997,2470.567,2021-5-07T15:19:53Z
2021-05-07T13:21:46Z,42.805,6.029,13.2990,4.59998,2470.624,2021-5-07T15:22:56Z
2021-05-07T13:24:49Z,42.805,6.029,13.2986,4.59999,2470.577,2021-5-07T15:25:59Z
2021-05-07T13:27:52Z,42.805,6.029,13.2990,4.59999,2470.577,2021-5-07T15:29:03Z
2021-05-07T13:30:55Z,42.805,6.029,13.2989,4.59998,2470.591,2021-5-07T15:32:06Z
2021-05-07T13:33:58Z,42.805,6.029,13.2988,4.59998,2470.614,2021-5-07T15:35:09Z
2021-05-07T13:37:02Z,42.805,6.029,13.2988,4.59997,2470.553,2021-5-07T15:38:12Z
2021-05-07T13:40:05Z,42.805,6.029,13.2991,4.59999,2470.577,2021-5-07T15:41:15Z
2021-05-07T13:43:08Z,42.805,6.029,13.2987,4.60000,2470.577,2021-5-07T15:44:18Z
2021-05-07T13:46:11Z,42.805,6.029,13.2990,4.59997,2470.614,2021-5-07T15:47:21Z
2021-05-07T13:49:14Z,42.805,6.029,13.2990,4.60000,2470.6,2021-5-07T15:50:24Z
2021-05-07T13:52:17Z,42.805,6.029,13.2987,4.59996,2470.577,2021-5-07T15:53:28Z
2021-05-07T13:55:20Z,42.805,6.029,13.2988,4.59997,2470.591,2021-5-07T15:56:31Z
2021-05-07T13:58:23Z,42.805,6.029,13.2990,4.59996,2470.6,2021-5-07T15:59:34Z
2021-05-07T14:01:27Z,42.805,6.029,13.2986,4.59996,2470.591,2021-5-07T16:02:37Z
2021-05-07T14:04:30Z,42.805,6.029,13.2986,4.59999,2470.637,2021-5-07T16:05:40Z
2021-05-07T14:07:33Z,42.805,6.029,13.2990,4.59999,2470.614,2021-5-07T16:08:43Z
2021-05-07T14:10:36Z,42.805,6.029,13.2990,4.59996,2470.577,2021-5-07T16:11:46Z
2021-05-07T14:13:39Z,42.805,6.029,13.2984,4.60000,2470.591,2021-5-07T16:14:49Z
2021-05-07T14:16:42Z,42.805,6.029,13.2990,4.59998,2470.6,2021-5-07T16:17:53Z
2021-05-07T14:19:45Z,42.805,6.029,13.2990,4.59997,2470.577,2021-5-07T16:20:56Z
2021-05-07T14:22:48Z,42.805,6.029,13.2986,4.59999,2470.624,2021-5-07T16:23:59Z
2021-05-07T14:25:52Z,42.805,6.029,13.2989,4.59998,2470.6,2021-5-07T16:27:02Z
2021-05-07T14:28:55Z,42.805,6.029,13.2988,4.59997,2470.624,2021-5-07T16:30:05Z
2021-05-07T14:31:58Z,42.805,6.029,13.2991,4.59998,2470.646,2021-5-07T16:33:08Z
2021-05-07T14:35:01Z,42.805,6.029,13.2989,4.60000,2470.624,2021-5-07T16:36:11Z
2021-05-07T14:38:04Z,42.805,6.029,13.2992,4.59999,2470.637,2021-5-07T16:39:14Z
2021-05-07T14:41:07Z,42.805,6.029,13.2991,4.60001,2470.624,2021-5-07T16:42:18Z
2021-05-07T14:44:10Z,42.805,6.029,13.2991,4.59998,2470.624,2021-5-07T16:45:21Z
2021-05-07T14:47:13Z,42.805,6.029,13.2986,4.60001,2470.637,2021-5-07T16:48:24Z
2021-05-07T14:50:17Z,42.805,6.029,13.2990,4.59998,2470.591,2021-5-07T16:51:27Z
2021-05-07T14:53:20Z,42.805,6.029,13.2988,4.59996,2470.624,2021-5-07T16:54:30Z
2021-05-07T14:56:23Z,42.805,6.029,13.2990,4.59996,2470.637,2021-5-07T16:57:33Z
2021-05-07T14:59:26Z,42.805,6.029,13.2990,4.59995,2470.6,2021-5-07T17:00:36Z
2021-05-07T15:02:29Z,42.805,6.029,13.2990,4.59996,2470.624,2021-5-07T17:03:39Z
2021-05-07T15:05:32Z,42.805,6.029,13.2991,4.59996,2470.646,2021-5-07T17:06:43Z
2021-05-07T15:08:35Z,42.805,6.029,13.2994,4.59997,2470.624,2021-5-07T17:09:46Z
2021-05-07T15:11:38Z,42.805,6.029,13.2985,4.59996,2470.637,2021-5-07T17:12:49Z